User: anonymous   Login
Location: �terpigny
(49.8910°N, 2.9249°E)
Time: 07:13:31
(UTC+00:00)
Language:

CZ-2D DEB - Orbit

View from above orbital plane
View from above orbital plane
View from above satellite
View from above satellite

Ground track
Ground track

The orbit data is extracted from the following two-line orbital elements,

1 29217U 05024H   22338.65881393  .00020720  00000-0  97180-3 0  9992
2 29217  97.5011  45.1782 0077534 306.5405  52.8706 15.16999764934351
Epoch (UTC): 04 December 2022 15:48:41
Eccentricity: 0.0077534
inclination: 97.5011°
perigee height: 461 km
apogee height: 568 km
right ascension of ascending node: 45.1782°
argument of perigee: 306.5405°
revolutions per day: 15.16999764
mean anomaly at epoch: 52.8706°
orbit number at epoch: 93435

The dashed part of the orbit path shows where the satellite is in the earth's shadow,  

DLR